Location: Bell
(33.9775°N, 118.1870°W)
Time: 16:31:39
(UTC+00:00)

Daily predictions for brighter satellites

Satellite Brightness Start Highest point End
(mag) Time Altitude Azimuth Time Altitude Azimuth Time Altitude Azimuth
Cosmos 2344 3.4 12:17:05 66° SSW 12:18:18 83° ESE 12:26:00 10° NNE
Cosmos 2219 3.7 12:23:48 53° SE 12:23:48 53° SE 12:28:10 10° SSE
CZ-3 R/B 3.3 12:22:37 37° WSW 12:32:02 67° S 12:39:32 10° E
Cosmos 44 4.5 12:34:51 32° SSE 12:34:51 32° SSE 12:37:20 10° SSE
ATLAS 2AS CENTAUR R/B 4.5 12:28:26 10° S 12:35:17 35° ESE 12:42:19 10° NE
Cosmos 2297 Rocket 2.2 12:39:08 66° NNE 12:39:52 76° ENE 12:45:30 10° SSE
Cosmos 2184 Rocket 3.9 12:43:48 13° N 12:49:23 87° E 12:55:39 10° S
Cosmos 2227 Rocket 2.1 12:50:18 52° NNW 12:51:45 86° ENE 12:57:23 10° SSE
Cosmos 1626 3.1 12:53:17 44° SE 12:53:17 44° SE 12:56:04 10° SSE
STARLINK-32 4.4 12:53:30 43° SSE 12:53:56 45° SE 12:57:47 10° ENE
STARLINK-33 4.3 12:55:26 46° E 12:55:26 46° E 12:58:25 10° NE
STARLINK-40 4.4 12:55:07 44° SSE 12:55:36 47° SE 12:59:29 10° NE
ATLAS 2A CENTAUR R/B 4.1 12:55:33 10° SE 12:56:14 10° SE 12:57:01 10° ESE
STARLINK-42 4.1 12:56:56 52° SE 12:56:56 52° SE 13:00:33 10° NE
Cosmos 2154 Rocket 4.4 12:51:05 10° N 12:57:12 61° E 13:03:18 10° SSE
STARLINK-44 4.3 12:56:42 46° SSE 12:57:13 49° SE 13:01:07 10° NE
STARLINK-64 4.1 12:57:37 52° SE 12:57:40 52° SE 13:01:23 10° NE
STARLINK-37 4.1 12:58:34 52° SSE 12:58:58 55° SE 13:02:54 10° NE
STARLINK-66 3.9 13:00:01 54° E 13:00:01 54° E 13:03:07 10° NE
STARLINK-36 4.1 12:59:53 47° SSE 13:00:33 54° SE 13:04:29 10° NE
Cosmos 2278 3.6 12:56:39 10° SSW 13:02:21 80° WNW 13:08:05 10° NNE
STARLINK-68 3.8 13:01:58 59° SSE 13:02:21 64° SE 13:06:21 10° NE
COSMO-SKYMED 1 3.0 12:58:24 10° SSE 13:02:40 59° ENE 13:05:41 19° N
STARLINK-63 3.9 13:03:21 54° S 13:03:56 63° SE 13:07:55 10° NE
STARLINK-55 3.6 13:05:07 64° E 13:05:07 64° E 13:08:21 10° NE
STARLINK-35 3.9 13:04:40 48° S 13:05:30 61° SE 13:09:27 10° NE
STARLINK-51 3.8 13:06:16 49° S 13:07:07 64° SE 13:11:06 10° NE
SEDSat Delta rocket 3.7 13:05:59 44° WSW 13:07:49 69° S 13:13:14 10° E
STARLINK-30 3.8 13:07:52 48° SSW 13:08:47 67° SE 13:12:47 10° NE
STARLINK-72 3.7 13:09:27 48° SSW 13:10:25 70° SE 13:14:25 10° NE
Cosmos 2369 3.9 13:09:59 46° W 13:10:26 47° WNW 13:15:59 10° N
COSMOS 2455 2.9 13:05:38 10° SSW 13:11:37 79° ESE 13:17:38 10° NNE
STARLINK-61 3.7 13:12:31 53° N 13:12:31 53° N 13:15:54 10° NE
STARLINK-50 3.6 13:11:04 47° SSW 13:12:05 73° SE 13:16:06 10° NE
STARLINK-59 3.5 13:12:54 51° SSW 13:13:50 81° SE 13:17:52 10° NE
Cosmos 1610 Rocket 4.4 13:07:37 10° N 13:13:55 89° W 13:20:16 10° S
Cosmos 1953 2.4 13:10:34 10° S 13:14:34 75° E 13:18:37 10° N
Cosmos 1726 3.9 13:11:39 10° SSE 13:14:59 33° E 13:18:19 10° NNE
STARLINK-56 3.5 13:14:14 45° SSW 13:15:23 79° SE 13:19:24 10° NE
STARLINK-28 3.2 13:16:15 71° N 13:16:15 71° N 13:19:32 10° NE
Starlink (trailer) 3.5 13:15:51 44° SW 13:17:03 82° SE 13:21:05 10° NE
STARLINK-38 3.4 13:17:27 43° SW 13:18:42 86° SE 13:22:44 10° NE
STARLINK-65 3.4 13:19:01 41° SW 13:20:20 89° SE 13:24:23 10° NE
METEOR-M 4.0 13:15:04 10° N 13:20:26 79° WNW 13:25:46 10° SSW
Cosmos 2074 Rocket 4.1 13:15:28 14° NNW 13:20:36 48° W 13:26:31 10° SSW
STARLINK-53 3.4 13:20:50 43° SW 13:22:04 84° NW 13:26:06 10° NE
CZ-3B R/B 2.6 13:24:08 17° SSW 13:24:56 18° S 13:27:44 10° SSE
SKYMED 3 4.4 13:22:08 10° S 13:26:27 70° W 13:29:47 17° NNW
STARLINK-75 3.3 13:26:14 48° W 13:27:05 64° NW 13:30:56 10° NE
PAYLOAD B 4.2 13:21:56 10° NNE 13:27:34 87° WNW 13:33:10 10° SSW
ALOS 2.2 13:23:38 10° N 13:28:13 58° WNW 13:32:47 10° SSW
STARLINK-67 2.6 13:30:06 64° NE 13:30:10 64° NE 13:32:48 10° SE
CZ-4B R/B 3.4 13:27:29 10° NNE 13:33:02 77° ESE 13:38:27 10° S
STARLINK-58 3.5 13:33:28 30° WSW 13:35:16 63° NW 13:39:16 10° NE
Cosmos 1980 Rocket 2.2 13:29:43 10° SW 13:35:18 57° WNW 13:40:54 10° NNE
STARLINK-41 3.4 13:35:13 30° WSW 13:36:55 61° NW 13:40:45 10° NE
STARLINK-62 3.5 13:35:12 30° WSW 13:36:58 58° NW 13:40:56 10° NE
Meteor 1-21 Rocket 4.3 13:36:35 10° N 13:42:30 89° W 13:48:25 10° S
Cosmos 2228 3.1 13:38:12 10° S 13:42:35 86° E 13:47:00 10° N
Meteor 2-10 4.2 13:37:18 10° S 13:42:56 83° E 13:48:26 10° N
Cosmos 1697 Rocket 3.6 13:42:59 23° W 13:44:16 25° WNW 13:48:50 10° N
FENGYUN 3A 3.9 13:39:45 10° N 13:44:53 46° WNW 13:50:00 10° SW
STARLINK 3.5 13:42:59 22° WSW 13:45:14 55° NW 13:49:02 10° NE
Cosmos 2181 Rocket 4.0 13:41:47 10° S 13:47:56 89° E 13:54:12 10° N
Cosmos 1602 Rocket 4.2 13:46:02 19° NW 13:48:18 31° W 13:52:06 10° SSW
SKYMED 2 4.2 13:46:44 10° SSW 13:50:42 34° W 13:54:15 12° NW
NOSS 3-4 (A) 3.4 13:45:10 10° SSW 13:51:06 83° ESE 13:57:16 10° NNE
NOSS 3-4 (C) 3.4 13:45:17 10° SSW 13:51:13 82° ESE 13:57:22 10° NNE
USA 215 3.3 13:50:41 10° SE 13:57:12 78° SW 14:03:45 10° NW
STARLINK-34 4.1 13:55:47 17° W 13:58:28 37° NW 14:02:14 10° NNE
Cosmos 2341 Rocket 3.9 13:52:54 10° N 13:59:09 74° W 14:05:18 10° S
Cosmos 1953 Rocket 3.8 13:55:20 10° N 13:59:46 72° E 14:04:07 10° SSE
STARLINK-24 4.1 13:57:54 16° W 14:00:41 36° NW 14:04:26 10° NNE
SJ-7 4.5 13:56:40 10° N 14:00:43 56° WNW 14:04:49 10° SSW
STARLINK-81 4.0 13:58:28 14° WSW 14:01:34 39° NW 14:05:22 10° NNE
STARLINK 1019 4.5 13:59:31 10° SSW 14:02:10 34° SE 14:04:50 10° ENE
STARLINK 1012 4.5 13:59:42 10° SSW 14:02:23 34° SE 14:05:04 10° ENE
STARLINK 1010 4.5 13:59:55 10° SSW 14:02:35 34° SE 14:05:17 10° ENE
STARLINK 1026 4.4 14:00:09 10° SSW 14:02:50 35° SE 14:05:32 10° ENE
STARLINK 1013 4.4 14:00:22 10° SSW 14:03:03 35° SE 14:05:46 10° ENE
STARLINK 1009 4.4 14:00:35 10° SSW 14:03:17 35° SE 14:05:59 10° ENE
STARLINK-54 4.2 14:00:30 15° W 14:03:25 34° NW 14:07:07 10° NNE
STARLINK 1015 4.4 14:00:49 10° SSW 14:03:29 35° SE 14:06:12 10° ENE
STARLINK 1016 4.4 14:01:02 10° SSW 14:03:44 36° SE 14:06:26 10° ENE
Okean O Rocket 2.0 13:59:31 10° N 14:03:44 42° WNW 14:07:54 10° SW
STARLINK 1008 4.4 14:01:16 10° SSW 14:03:58 36° SE 14:06:40 10° ENE
Cosmos 1328 4.4 14:00:05 10° N 14:04:01 61° E 14:07:55 10° SSE
STARLINK 1014 4.4 14:01:27 10° SSW 14:04:09 36° SE 14:06:53 10° ENE
STARLINK 1025 4.3 14:01:43 10° SSW 14:04:25 36° SE 14:07:08 10° ENE
STARLINK 1017 4.3 14:01:55 10° SSW 14:04:37 37° SE 14:07:21 10° ENE
STARLINK 1023 4.3 14:02:09 10° SSW 14:04:51 37° SE 14:07:35 10° ENE
STARLINK-77 4.1 14:01:38 13° WSW 14:04:53 36° NW 14:08:38 10° NNE
Cosmos 1758 Rocket 3.7 14:00:47 10° NNW 14:05:02 52° W 14:09:19 10° S
STARLINK 1007 4.3 14:02:23 10° SSW 14:05:06 37° SE 14:07:50 10° ENE
STARLINK 1048 4.3 14:02:35 10° SSW 14:05:17 38° SE 14:08:01 10° ENE
STARLINK 1049 4.3 14:02:48 10° SSW 14:05:30 38° SE 14:08:15 10° ENE
SL-8 Rocket 4.0 13:59:24 10° N 14:05:38 89° E 14:11:47 10° S
STARLINK 1051 4.2 14:03:01 10° SSW 14:05:44 38° SE 14:08:28 10° ENE
NOSS 3-2 (A) 4.3 13:58:24 10° NNW 14:06:17 79° ENE 14:14:52 10° SE
STARLINK-25 4.2 14:03:16 12° WSW 14:06:34 35° NW 14:10:17 10° NNE
Helios 1A Rocket 3.1 14:02:44 10° N 14:06:43 49° WNW 14:10:41 10° SSW
STARLINK-71 4.4 14:05:22 13° W 14:08:27 31° NW 14:12:03 10° NNE
STARLINK-79 4.3 14:06:25 11° WSW 14:09:52 33° NW 14:13:31 10° NNE
Cosmos 2082 4.5 14:05:49 10° NW 14:10:44 31° WSW 14:15:41 10° SSW
Cosmos 923 Rocket 4.1 14:06:08 10° SW 14:11:12 51° WNW 14:16:21 10° N
STARLINK-78 4.3 14:08:04 11° WSW 14:11:34 32° NW 14:15:12 10° NNE
STARLINK 1044 4.4 14:09:05 10° SSW 14:12:29 46° SE 14:15:54 10° ENE
STARLINK-57 4.5 14:09:54 11° W 14:13:20 29° NW 14:16:54 10° NNE
STARLINK-49 4.4 14:11:18 10° W 14:14:52 30° NW 14:18:26 10° NNE
BREEZE-M DEB (TANK) 4.4 14:13:04 10° SSW 14:16:06 60° SE 14:23:54 10° NE
NOSS 2 (A) 4.5 14:13:52 10° NNW 14:16:10 57° ENE 14:18:33 10° SE
STARLINK-27 4.5 14:13:00 10° W 14:16:31 29° NW 14:20:05 10° NNE
CORIOLIS 4.4 14:15:01 10° NNE 14:20:23 77° ESE 14:25:44 10° S
Cosmos 2058 Rocket 3.1 14:16:59 10° SSW 14:21:21 60° W 14:25:42 10° N
BREEZE-M DEB (TANK) 4.0 14:14:20 10° WNW 14:21:48 29° WSW 14:24:45 10° S
Cosmos 2322 Rocket 2.3 14:17:17 10° SSW 14:22:55 85° ESE 14:28:38 10° NNE
Cosmos 2297 Rocket 4.0 14:21:39 10° W 14:23:07 11° W 14:24:35 10° WSW
SL-4 R/B 3.4 14:20:14 10° NNW 14:23:09 24° NE 14:25:57 10° E
ADEOS Rocket 2.7 14:18:20 10° S 14:23:50 80° WSW 14:29:23 10° NNW
CENTAUR R/B 3.9 14:16:13 10° NNW 14:24:21 57° NE 14:32:56 10° SE
Cosmos 44 Rocket 3.7 14:20:13 10° NW 14:24:41 43° WSW 14:29:11 10° S
IRS-1C Rocket 4.1 14:20:36 10° NNE 14:25:53 83° WNW 14:31:09 10° SSW
ATLAS 2AS CENTAUR R/B 3.3 14:18:27 10° SW 14:26:02 49° NW 14:33:48 10° NNE
USA 32 4.4 14:23:23 10° NNW 14:28:17 41° W 14:33:10 10° SSW
SMAP 3.1 14:24:19 10° N 14:28:54 61° WNW 14:33:28 10° SSW
Lacrosse 5 2.2 14:26:57 10° SSW 14:32:00 74° SE 14:37:04 10° NE
